Temperature
23 23 22 23 28 30 31 31 31 30 30 29 28 28 28 28 28 25 20 20 20 20 19 20 19 19 18 18 18 18 18 18 18 18 18 18 18 18 18 18 18 18 17 17 17 17 17 18 18
22 22 22 26 29 30 30 31 30 30 29 28 27 27 27 26 24 22 20 20 20 19 19 19 19 19 18 18 18 18 18 18 18 18 18 18 18 18 18 18 17 17 17 17 17 17 17 17 18
21 22 25 29 29 30 30 31 31 29 28 28 28 27 27 25 23 21 20 20 19 19 18 19 19 19 18 18 18 18 18 18 18 18 18 18 18 18 17 17 17 17 17 17 17 17 17 17 17
22 23 26 29 29 31 31 31 30 29 28 28 28 27 25 22 22 21 20 20 19 19 18 19 19 19 19 18 18 18 18 18 18 18 18 18 17 17 17 17 17 17 17 17 17 17 17 17 17
23 26 28 29 30 31 31 30 30 30 29 28 28 28 25 21 21 20 20 20 19 19 19 19 19 19 19 18 18 18 18 18 18 18 17 17 17 17 17 17 17 17 17 17 17 17 17 17 17
25 28 29 29 30 30 31 30 30 31 30 29 28 28 25 21 21 20 20 20 20 19 19 19 19 19 19 18 18 18 18 18 18 17 17 17 17 17 17 17 17 17 17 17 17 17 17 17 17
27 29 29 30 30 30 30 30 30 31 30 29 29 28 25 22 21 21 20 20 20 20 19 19 19 19 19 18 18 18 18 18 17 17 17 17 17 17 17 17 17 17 17 17 17 17 17 17 17
26 29 29 30 30 30 30 30 30 30 30 29 28 29 27 23 21 21 20 20 20 20 19 19 18 18 18 18 18 18 18 17 17 17 17 17 17 17 17 16 17 17 17 17 17 17 17 17 17
25 28 29 30 30 30 30 30 30 29 29 28 28 28 26 23 21 21 20 20 20 19 19 19 19 18 18 17 18 17 17 17 17 17 17 17 16 16 16 16 17 17 17 17 17 17 17 17 17
26 29 30 30 30 30 30 30 30 29 29 28 27 26 24 22 21 21 21 21 20 19 19 19 18 18 18 17 18 17 17 17 16 16 16 16 16 16 16 16 17 17 17 17 17 17 17 17 16
27 29 29 29 29 29 30 30 30 30 30 29 28 26 24 22 22 22 22 21 21 20 19 19 18 18 18 18 17 17 17 17 16 16 16 16 16 16 16 16 16 16 16 16 16 16 16 16 16
28 28 28 29 28 28 29 30 30 30 31 30 29 27 24 23 23 23 23 22 21 20 19 19 18 18 18 18 18 17 17 17 17 16 16 16 16 16 16 16 16 16 16 16 16 16 16 16 16
27 28 28 28 28 28 28 30 30 30 30 29 28 26 25 24 24 23 23 22 21 20 19 19 19 18 18 18 17 17 17 17 17 16 16 16 16 16 16 16 16 16 16 16 16 16 15 15 15
28 28 28 28 29 28 29 30 30 30 28 28 27 26 25 25 24 23 22 21 20 19 18 18 18 18 18 18 17 17 17 17 16 16 16 16 16 16 16 16 16 16 15 15 15 15 15 15 15
26 27 28 29 29 29 29 30 30 28 27 28 27 26 26 25 24 23 22 21 20 18 18 18 18 18 18 17 17 17 17 16 16 16 16 16 16 16 16 16 15 15 15 15 15 15 15 14 14
27 27 28 29 29 29 29 30 30 27 27 28 27 27 25 25 24 23 21 20 19 18 18 18 18 18 18 18 17 17 16 16 16 16 16 16 16 16 16 15 15 15 15 14 14 14 14 14 13
27 27 28 29 29 29 29 30 29 26 27 27 27 26 25 24 23 22 20 19 18 18 17 17 18 17 17 17 17 17 17 16 16 16 16 16 16 16 15 15 15 15 14 13 13 13 13 13 12
27 28 28 28 28 28 28 29 28 26 26 27 27 26 25 24 22 20 19 18 17 17 17 17 17 18 17 17 17 17 16 16 16 16 16 16 15 15 14 14 14 13 13 12 12 12 12 12 11
27 26 27 28 28 27 27 28 28 27 26 27 27 26 24 23 21 19 18 17 16 16 17 17 17 17 17 16 16 16 16 16 15 15 15 15 14 14 14 13 13 13 12 12 11 11 10 10 10
25 25 26 27 27 26 27 27 27 27 26 26 26 25 24 22 18 17 17 16 16 16 16 16 16 16 16 16 16 16 15 15 15 14 14 14 13 13 12 12 11 11 11 10 10 9 9 9 8
25 25 26 26 27 26 26 26 27 27 25 24 24 24 23 21 18 16 16 16 15 15 15 15 15 15 15 15 15 15 15 14 13 13 13 13 12 12 12 11 10 10 9 9 8 7 7 7 7
25 26 25 25 25 26 26 26 28 27 26 25 24 23 23 21 18 16 15 15 15 15 15 15 15 15 15 14 14 14 13 13 13 12 12 12 11 10 10 9 9 8 8 7 6 6 6 6 7
25 26 25 25 25 25 26 25 27 27 26 27 26 24 22 20 17 15 15 14 14 14 14 14 14 14 14 14 13 13 13 13 12 12 11 10 9 9 8 8 7 7 6 6 5 5 5 5 5
25 25 25 25 25 24 25 25 26 28 27 28 27 24 21 19 16 15 14 14 13 13 13 13 13 13 13 13 13 13 13 12 12 11 10 9 8 7 7 6 6 5 5 5 4 4 4 4 3
25 24 23 24 24 25 26 26 26 28 28 28 27 24 21 18 15 14 13 13 13 13 13 13 12 12 12 12 12 12 12 12 11 10 9 8 7 7 6 5 5 5 4 4 4 3 3 3 3
25 24 23 23 24 26 26 25 27 27 27 25 24 23 20 17 15 13 13 13 13 12 12 12 12 12 12 12 12 12 11 10 9 9 8 7 6 6 5 4 4 4 4 4 3 3 3 3 2
25 25 25 24 24 24 25 26 27 27 26 25 24 22 19 16 14 13 12 12 12 12 11 11 11 11 11 11 11 11 10 9 8 7 7 6 5 5 4 4 4 4 3 3 3 3 3 3 2
26 26 25 24 22 22 24 25 26 26 27 26 25 22 19 16 13 12 11 11 11 11 11 10 10 10 10 10 10 10 9 8 7 6 6 5 5 4 4 4 4 3 3 3 3 3 3 3 2
24 24 24 24 24 23 23 25 27 27 26 26 25 23 19 15 13 11 11 10 10 10 10 10 10 10 10 10 9 9 8 7 6 5 5 4 4 4 4 4 4 4 3 3 3 3 3 3 3
25 25 24 23 23 24 23 25 26 26 25 25 24 22 19 16 13 11 10 10 9 9 9 9 9 9 9 9 8 7 7 6 5 5 4 4 4 4 4 4 4 4 4 3 3 3 3 3 2
Wind_Speed
12 10 6 5 6 7 4 2 2 4 4 3 3 2 3 5 5 4 7 11 12 13 16 18 16 14 12 12 12 14 14 15 15 15 14 13 12 10 9 8 7 7 7 8 9 9 9 9 8
9 7 6 5 8 7 4 4 5 5 6 6 5 2 2 4 5 7 10 12 14 14 15 16 17 15 14 13 13 13 14 14 14 13 12 11 10 9 8 7 6 6 6 7 7 7 7 7 6
8 8 6 6 8 5 4 5 6 7 8 6 4 2 2 4 5 7 10 14 14 13 13 16 18 16 15 14 14 14 14 13 12 12 11 10 9 8 7 6 6 6 6 6 6 6 6 5 5
6 6 6 9 11 4 1 5 8 11 8 6 5 5 4 4 4 9 14 15 14 13 13 16 16 16 16 15 15 14 13 13 12 11 10 9 8 7 6 6 5 5 5 5 4 4 4 4 4
7 7 11 12 10 5 4 5 10 11 9 7 5 6 6 5 8 13 14 14 14 13 12 16 15 16 16 15 14 14 13 12 11 10 9 8 7 6 5 5 4 4 4 4 4 4 5 5 4
7 7 10 12 10 7 7 9 12 10 9 9 7 7 6 8 10 13 14 13 13 12 12 14 14 14 15 14 13 13 12 11 10 9 8 8 7 6 5 4 4 4 4 5 5 6 6 6 5
10 9 12 9 7 8 7 10 14 11 10 10 8 7 7 10 11 13 13 12 12 11 11 13 15 14 14 13 12 12 11 10 10 9 8 7 6 5 4 5 5 5 5 6 6 6 6 6 6
7 7 10 9 8 8 7 11 13 12 9 8 8 7 7 14 14 14 13 12 11 11 10 11 12 13 14 14 12 11 10 10 9 8 7 6 6 6 5 5 7 6 6 6 6 6 6 6 6
6 9 10 8 7 6 7 11 12 10 9 9 9 4 6 18 17 16 14 13 12 10 9 9 10 10 11 12 13 12 10 9 9 9 7 6 6 5 6 7 7 6 6 6 6 5 4 3 6
7 11 7 3 2 2 5 10 13 13 14 12 11 8 11 19 19 18 17 16 15 13 11 10 10 10 10 9 11 9 9 9 7 6 6 5 3 2 2 9 6 6 5 6 5 3 4 5 3
8 8 2 3 3 5 5 10 13 15 14 16 16 15 17 19 19 19 17 16 15 14 12 10 10 9 9 8 8 7 6 7 6 5 4 3 3 4 3 3 6 5 4 3 4 5 2 1 1
9 8 7 5 4 6 6 9 14 16 12 10 14 17 20 21 20 19 17 16 14 13 12 10 10 9 8 7 7 7 6 6 5 6 5 5 3 2 1 1 0 2 2 0 2 2 1 2 3
14 10 8 8 9 7 8 10 12 14 8 5 11 17 21 22 20 17 15 15 14 13 12 11 10 9 8 6 6 6 5 6 5 5 5 3 4 3 2 1 2 3 2 3 3 4 3 4 5
9 10 9 9 7 5 7 8 10 7 6 9 13 18 21 22 20 18 16 15 13 12 11 10 10 10 9 7 6 5 6 4 4 4 3 3 3 2 2 3 2 2 3 4 4 3 4 4 5
7 10 12 10 8 4 6 10 10 4 6 10 14 17 20 21 20 18 16 14 13 11 10 10 10 10 9 8 7 6 5 5 4 3 2 1 2 1 2 1 1 1 1 1 2 3 4 4 5
10 13 15 11 7 5 9 14 9 3 6 10 12 15 17 19 19 17 15 12 11 11 10 10 9 10 9 7 6 5 4 4 3 3 3 3 3 2 1 1 1 2 1 1 1 3 4 4 6
14 17 19 13 6 6 10 11 6 2 7 9 11 13 16 17 18 15 13 12 10 10 10 10 9 10 9 9 8 7 7 6 5 5 5 6 6 5 4 4 4 2 2 2 3 3 5 5 6
15 17 18 17 8 7 11 11 5 4 7 10 11 12 14 16 16 13 11 11 10 10 10 10 10 10 11 9 8 8 8 7 7 8 8 8 7 7 5 5 5 3 2 3 3 3 3 5 6
10 11 14 13 7 10 13 13 10 7 9 11 12 12 14 15 12 11 11 10 10 10 11 11 11 11 9 8 8 7 7 7 7 8 10 9 8 8 6 4 4 4 3 4 4 4 5 5 5
14 15 16 14 8 9 13 14 11 10 12 11 12 13 14 14 12 11 11 11 11 11 11 11 11 11 9 7 6 6 8 7 7 8 9 9 8 7 6 5 3 3 2 2 3 4 5 6 5
16 16 16 15 12 11 13 19 16 12 12 12 13 14 15 16 16 13 12 11 11 11 11 10 11 10 9 10 9 9 8 7 6 6 5 6 6 6 5 4 3 2 3 3 4 5 5 7 7
16 14 14 15 15 15 11 16 16 13 13 14 15 15 16 16 15 14 14 13 12 11 11 12 11 11 10 10 9 9 6 6 5 4 5 5 5 4 4 3 3 3 4 3 5 4 6 6 8
14 10 12 14 15 17 15 14 16 10 13 16 17 16 15 15 15 14 14 14 13 12 12 11 12 11 10 8 8 7 7 7 6 5 5 3 3 3 3 3 3 3 4 4 5 5 5 6 6
11 9 10 13 14 19 18 17 16 12 12 13 13 15 15 14 14 14 14 14 13 12 12 12 12 11 10 9 9 8 9 8 6 4 3 1 1 1 2 3 3 3 4 3 3 4 4 4 5
12 12 10 11 14 17 15 14 15 9 9 10 8 12 15 16 16 16 16 15 14 14 13 12 13 12 10 10 9 9 9 8 6 3 3 1 1 1 2 3 3 4 3 4 4 5 5 5 6
16 17 13 12 13 12 9 11 10 5 6 7 8 11 15 17 17 17 17 17 16 15 14 13 13 12 11 10 10 9 7 5 5 3 2 2 2 3 3 3 4 4 5 5 5 7 6 6 8
19 19 20 18 19 18 15 15 10 10 12 11 11 13 17 17 17 17 17 17 17 16 14 13 13 11 10 10 10 9 7 5 5 3 1 1 2 3 3 4 5 6 6 6 7 7 8 8 10
17 15 11 14 17 19 19 19 15 12 11 11 12 15 17 17 17 17 17 17 16 15 13 12 12 12 11 10 8 7 6 5 3 1 2 2 3 4 5 6 6 7 7 8 9 10 9 10 12
14 15 14 14 15 17 18 13 6 6 6 7 10 14 18 19 19 18 17 17 16 15 14 12 12 11 10 9 8 7 5 3 1 0 1 3 4 5 7 7 8 9 10 10 10 12 13 14 14
11 15 16 16 17 17 17 16 4 2 5 6 8 10 16 19 19 19 18 18 16 16 14 13 12 11 10 8 7 6 4 2 1 2 3 4 6 7 8 9 10 11 11 12 13 14 14 15 16
Wind_Direction
179 191 220 244 253 240 250 142 149 136 128 106 96 41 17 13 3 57 119 143 144 143 141 148 148 148 146 139 129 121 117 115 114 114 116 117 118 119 118 114 106 99 96 94 90 87 88 89 89
182 194 226 245 256 242 171 146 162 126 115 131 128 101 57 64 56 102 134 143 148 145 147 150 146 151 151 147 138 132 128 126 124 122 122 121 121 120 119 115 107 98 93 90 89 88 88 87 84
191 218 243 244 246 254 127 142 142 129 141 160 145 109 56 64 99 122 134 146 149 148 148 141 151 154 156 155 149 144 141 138 135 132 130 127 125 122 119 116 111 104 97 93 91 88 86 81 74
201 212 231 242 234 225 162 145 147 150 158 170 157 124 97 76 108 128 138 149 150 152 151 145 156 156 159 160 157 152 150 148 146 143 139 136 133 129 124 120 116 110 104 100 96 93 89 82 77
227 230 227 229 224 200 194 173 168 163 161 169 175 137 121 104 113 131 145 152 154 152 149 148 156 157 161 163 161 158 154 152 149 147 145 142 139 133 128 121 112 106 101 97 89 90 88 85 76
212 226 226 216 197 190 194 188 185 175 163 164 172 147 123 130 140 148 150 156 154 152 149 143 154 160 164 165 163 159 155 151 148 146 144 141 135 128 122 111 101 94 92 89 88 89 86 79 71
234 228 232 214 188 190 190 191 196 186 174 171 171 154 139 154 154 155 153 156 155 153 153 154 160 165 166 164 162 156 151 148 145 143 142 139 133 127 116 106 95 91 91 91 91 90 84 78 73
253 243 223 207 197 179 176 190 200 199 179 155 173 176 165 163 159 159 156 159 157 158 158 156 160 162 167 166 160 155 150 148 144 144 145 147 155 149 136 140 102 96 97 96 94 91 89 89 85
245 240 208 188 190 164 172 190 192 197 176 176 189 188 140 152 161 165 164 166 164 162 162 164 161 164 167 160 155 161 156 154 162 162 159 193 190 161 159 90 92 98 100 99 97 97 103 135 133
227 234 188 163 222 210 190 197 182 188 190 191 188 173 150 158 170 175 175 174 173 171 173 171 165 166 168 160 157 171 173 165 189 162 169 185 142 142 108 116 114 110 114 126 115 127 184 238 179
224 239 194 227 272 281 229 204 191 199 200 202 198 182 168 173 180 185 182 180 176 171 174 172 169 173 168 165 167 169 169 159 176 168 174 167 181 171 172 160 153 149 173 171 147 202 212 267 334
233 242 255 273 301 279 246 206 199 210 213 208 200 182 176 182 188 190 186 181 175 173 173 172 168 173 178 171 166 172 173 171 172 163 194 181 186 195 171 230 203 216 199 212 262 247 230 266 264
232 242 248 264 278 276 249 216 207 211 211 194 187 180 184 188 190 192 188 181 178 174 172 171 174 166 169 174 182 180 175 174 166 174 181 202 209 212 218 242 275 281 287 254 264 282 283 276 264
234 244 255 264 264 237 224 200 205 196 195 194 188 189 192 192 191 188 188 185 181 177 175 169 174 168 172 177 181 177 179 174 176 181 176 210 237 233 243 238 255 291 305 322 306 300 289 285 292
247 249 244 236 234 218 218 196 196 163 195 198 199 199 197 195 192 190 188 187 182 178 174 171 171 167 174 174 175 171 172 174 172 149 147 209 245 216 238 254 244 342 348 321 292 298 287 286 285
226 235 237 210 211 210 230 213 163 158 201 207 208 204 200 197 196 191 185 182 178 177 171 170 168 162 162 156 154 150 145 138 130 120 106 88 76 86 123 95 65 45 346 324 318 302 293 293 292
222 231 231 209 195 224 236 232 154 202 221 219 213 207 203 198 199 189 184 177 175 175 169 164 155 153 148 139 132 120 110 105 104 97 89 84 78 78 78 69 62 42 20 356 330 339 320 305 305
229 233 233 233 195 236 241 239 214 223 233 228 219 212 206 202 197 183 177 168 166 166 161 152 143 139 136 131 123 117 109 105 96 88 81 81 78 72 74 81 58 24 17 10 8 340 331 313 307
259 253 245 243 246 257 249 245 240 230 232 231 223 216 209 203 182 167 166 162 160 158 154 149 143 141 141 140 139 130 117 109 99 89 82 78 73 69 58 64 62 29 33 13 350 328 307 297 312
239 244 248 249 236 258 257 251 247 239 235 234 228 219 211 193 175 170 167 165 161 154 150 145 144 144 146 135 122 115 113 103 95 89 81 76 72 64 66 51 45 36 22 13 349 332 312 303 301
234 244 253 259 260 251 261 254 238 228 230 233 233 226 214 200 189 177 170 162 155 151 151 146 141 138 131 130 124 123 120 127 119 107 92 76 72 69 59 51 29 8 321 340 328 315 316 313 306
240 242 253 260 261 259 244 267 245 220 225 228 228 222 215 202 192 180 170 157 150 142 138 136 134 131 133 140 142 145 147 137 117 113 98 91 73 65 56 39 23 352 336 336 311 343 317 306 305
245 255 250 254 259 265 251 259 263 217 235 236 226 218 210 198 186 174 165 152 142 138 136 132 127 124 125 125 129 132 123 117 120 113 105 100 88 63 41 23 3 347 334 348 336 328 317 312 313
237 241 247 249 253 253 251 254 261 230 238 248 229 209 200 188 174 161 149 141 138 137 135 132 125 121 121 120 119 115 115 116 115 113 113 126 91 52 37 3 355 335 341 336 322 313 301 316 317
218 231 240 239 233 249 245 248 260 258 247 254 242 204 191 179 169 159 153 149 146 145 141 136 130 125 122 117 113 112 115 119 117 116 105 20 5 2 32 343 329 327 324 311 308 295 304 296 299
221 230 244 261 262 264 232 243 260 245 257 259 244 208 184 179 175 169 163 156 153 149 145 141 136 132 128 119 114 113 119 111 105 90 54 34 344 350 353 314 308 303 298 296 296 290 287 288 288
238 235 246 259 268 274 268 267 260 248 247 241 226 201 186 181 176 169 165 159 155 152 150 146 140 134 127 122 120 115 105 94 96 109 102 15 336 319 314 304 298 295 291 291 288 287 288 288 286
242 246 240 244 256 261 263 260 261 256 249 234 217 201 187 178 171 168 166 161 156 152 147 145 140 135 131 129 125 118 114 110 105 67 42 345 315 307 299 296 294 291 288 285 285 287 288 289 288
215 227 234 249 254 263 268 269 291 259 270 261 231 206 187 179 172 169 167 162 156 152 150 149 142 137 136 129 122 118 113 106 104 313 294 296 297 297 292 296 296 293 291 289 287 288 292 290 292
245 237 236 247 254 257 267 274 300 268 283 277 252 211 187 178 174 170 166 161 158 158 155 150 144 140 135 129 124 118 115 121 247 270 283 285 285 289 293 294 292 291 290 290 290 291 294 294 296
Height
1535 1535 1535 1537 1530 1518 1510 1507 1506 1509 1510 1514 1516 1516 1516 1517 1520 1528 1532 1532 1534 1536 1537 1537 1540 1542 1544 1546 1547 1549 1550 1552 1553 1555 1556 1557 1558 1559 1560 1561 1562 1563 1564 1564 1565 1565 1566 1566 1566
1535 1535 1538 1534 1523 1515 1509 1505 1507 1508 1513 1517 1519 1520 1520 1522 1527 1529 1530 1532 1534 1537 1538 1539 1540 1542 1544 1546 1548 1550 1551 1553 1554 1555 1556 1557 1558 1560 1561 1562 1562 1563 1564 1564 1565 1565 1566 1566 1566
1534 1535 1536 1525 1517 1510 1507 1505 1506 1512 1516 1518 1519 1521 1523 1526 1529 1530 1531 1532 1535 1538 1540 1539 1541 1543 1545 1546 1548 1550 1551 1553 1554 1555 1556 1558 1559 1560 1561 1562 1563 1563 1564 1565 1565 1565 1566 1566 1566
1535 1536 1532 1523 1514 1506 1505 1505 1508 1513 1516 1518 1519 1522 1525 1529 1530 1531 1531 1534 1537 1539 1541 1540 1542 1544 1545 1547 1549 1550 1552 1553 1554 1555 1557 1558 1559 1560 1561 1562 1563 1564 1564 1565 1565 1565 1566 1566 1566
1534 1530 1522 1516 1509 1505 1506 1508 1509 1510 1514 1518 1520 1521 1526 1529 1530 1531 1532 1535 1538 1541 1542 1542 1543 1545 1546 1548 1549 1551 1552 1554 1555 1556 1557 1558 1559 1560 1561 1562 1563 1564 1564 1565 1565 1565 1565 1565 1565
1531 1523 1517 1512 1506 1505 1507 1509 1509 1509 1512 1517 1519 1520 1526 1529 1530 1532 1535 1537 1540 1542 1543 1542 1543 1545 1547 1549 1550 1552 1553 1554 1555 1556 1557 1558 1559 1560 1561 1562 1563 1563 1564 1564 1564 1564 1564 1564 1564
1525 1516 1509 1504 1504 1505 1506 1508 1509 1508 1511 1515 1518 1520 1526 1529 1530 1533 1535 1538 1541 1543 1544 1544 1544 1545 1547 1549 1551 1552 1553 1555 1556 1557 1558 1558 1559 1560 1561 1562 1562 1562 1563 1563 1563 1563 1563 1563 1563
1523 1514 1507 1504 1505 1503 1505 1507 1508 1508 1510 1516 1519 1519 1523 1528 1529 1532 1535 1538 1541 1543 1545 1546 1547 1548 1548 1550 1551 1552 1554 1555 1556 1557 1557 1558 1559 1560 1561 1561 1561 1562 1562 1562 1562 1562 1563 1563 1563
1523 1515 1505 1503 1504 1502 1504 1505 1507 1509 1512 1517 1519 1520 1523 1525 1528 1532 1535 1537 1540 1542 1543 1546 1548 1549 1551 1552 1551 1553 1554 1555 1556 1557 1557 1558 1561 1561 1561 1561 1561 1561 1561 1561 1561 1562 1562 1562 1562
1519 1509 1501 1503 1504 1502 1503 1502 1505 1509 1511 1515 1518 1521 1523 1524 1527 1530 1533 1535 1538 1540 1543 1545 1547 1548 1551 1552 1551 1554 1555 1556 1557 1559 1559 1560 1560 1561 1561 1560 1560 1561 1561 1561 1561 1561 1562 1562 1564
1513 1505 1503 1505 1506 1505 1503 1502 1503 1504 1505 1509 1513 1518 1521 1524 1526 1529 1532 1534 1537 1539 1541 1544 1546 1548 1550 1552 1553 1554 1556 1556 1557 1558 1558 1559 1560 1561 1562 1562 1561 1561 1561 1562 1561 1562 1563 1563 1562
1511 1508 1508 1506 1506 1505 1502 1500 1500 1501 1501 1505 1510 1515 1519 1522 1525 1528 1531 1534 1537 1539 1541 1543 1544 1546 1548 1551 1552 1553 1555 1556 1557 1557 1558 1559 1560 1561 1561 1561 1562 1562 1562 1561 1562 1562 1562 1561 1561
1510 1506 1507 1506 1504 1503 1502 1499 1498 1499 1501 1505 1509 1513 1517 1520 1524 1528 1532 1534 1536 1538 1539 1541 1542 1544 1546 1548 1550 1553 1554 1555 1556 1556 1557 1558 1560 1560 1561 1560 1560 1561 1561 1561 1561 1561 1561 1560 1560
1505 1506 1505 1504 1502 1502 1499 1497 1498 1499 1502 1505 1508 1511 1515 1518 1522 1526 1530 1532 1535 1536 1537 1539 1541 1542 1544 1546 1548 1551 1553 1553 1555 1556 1556 1556 1558 1558 1559 1559 1558 1559 1559 1559 1559 1559 1558 1558 1557
1509 1507 1502 1500 1499 1499 1498 1497 1496 1500 1502 1504 1506 1509 1512 1516 1520 1523 1527 1530 1533 1534 1535 1537 1539 1541 1543 1545 1548 1550 1551 1552 1553 1554 1554 1554 1555 1556 1556 1557 1556 1556 1556 1555 1556 1555 1555 1554 1554
1505 1503 1501 1494 1497 1497 1498 1494 1495 1500 1501 1502 1504 1507 1510 1514 1518 1522 1525 1527 1529 1531 1533 1535 1538 1539 1541 1543 1545 1548 1549 1550 1551 1551 1552 1552 1552 1553 1553 1554 1553 1553 1553 1553 1552 1552 1552 1551 1550
1500 1499 1495 1490 1495 1495 1494 1489 1494 1499 1500 1500 1502 1504 1508 1512 1516 1519 1522 1524 1526 1528 1530 1533 1535 1537 1539 1541 1543 1545 1546 1547 1548 1549 1549 1549 1550 1550 1550 1550 1550 1550 1549 1549 1549 1548 1547 1546 1544
1493 1492 1491 1490 1491 1495 1493 1490 1494 1498 1498 1497 1499 1501 1505 1508 1512 1515 1517 1520 1522 1525 1527 1529 1532 1534 1537 1539 1541 1543 1544 1545 1545 1546 1546 1546 1547 1547 1547 1547 1546 1546 1546 1545 1544 1542 1541 1540 1539
1493 1495 1494 1490 1492 1496 1493 1491 1491 1495 1496 1495 1496 1498 1501 1505 1508 1510 1513 1516 1518 1521 1524 1526 1529 1531 1535 1537 1539 1540 1541 1542 1543 1543 1543 1544 1544 1544 1544 1544 1543 1543 1542 1540 1539 1538 1537 1536 1534
1498 1500 1496 1492 1493 1496 1491 1490 1488 1491 1492 1492 1493 1495 1498 1501 1504 1506 1509 1512 1515 1517 1521 1523 1526 1529 1532 1534 1536 1537 1538 1540 1541 1541 1541 1541 1541 1541 1541 1540 1540 1538 1537 1535 1534 1533 1532 1532 1530
1496 1496 1493 1491 1488 1490 1492 1488 1484 1485 1489 1490 1490 1491 1493 1496 1500 1503 1506 1508 1511 1514 1516 1520 1523 1525 1528 1531 1533 1534 1535 1537 1538 1538 1538 1538 1538 1537 1537 1536 1535 1534 1534 1533 1530 1529 1528 1528 1527
1493 1487 1490 1491 1492 1486 1485 1489 1473 1475 1481 1483 1484 1486 1488 1492 1496 1499 1501 1504 1507 1509 1513 1516 1519 1522 1525 1527 1530 1532 1533 1534 1535 1535 1535 1535 1534 1534 1533 1532 1531 1530 1530 1529 1528 1527 1525 1524 1524
1486 1483 1486 1487 1488 1488 1484 1489 1475 1470 1476 1473 1475 1479 1483 1488 1492 1495 1498 1500 1503 1506 1510 1513 1516 1519 1522 1524 1527 1529 1530 1531 1532 1532 1532 1532 1531 1530 1530 1529 1528 1527 1527 1525 1524 1523 1521 1521 1520
1482 1485 1485 1485 1484 1491 1481 1482 1475 1463 1467 1464 1466 1473 1479 1484 1489 1492 1494 1497 1500 1504 1507 1510 1514 1517 1519 1522 1524 1526 1528 1528 1529 1530 1530 1530 1530 1529 1528 1527 1526 1525 1524 1523 1521 1520 1519 1517 1515
1482 1488 1492 1489 1486 1480 1465 1473 1468 1456 1459 1461 1463 1469 1476 1481 1485 1488 1490 1494 1498 1502 1506 1509 1512 1515 1518 1520 1522 1523 1524 1525 1525 1527 1527 1528 1529 1528 1526 1525 1524 1523 1522 1520 1519 1518 1516 1514 1512
1476 1480 1489 1491 1481 1468 1462 1470 1459 1455 1460 1462 1464 1467 1472 1477 1481 1485 1488 1491 1496 1500 1503 1507 1510 1513 1515 1517 1519 1520 1522 1523 1524 1524 1525 1526 1527 1527 1524 1523 1522 1521 1520 1518 1516 1515 1514 1511 1509
1470 1471 1468 1476 1477 1480 1469 1458 1453 1455 1458 1459 1461 1464 1469 1474 1479 1483 1486 1489 1493 1497 1501 1505 1508 1511 1513 1515 1516 1518 1519 1520 1521 1521 1522 1524 1524 1524 1523 1522 1520 1519 1517 1515 1513 1512 1510 1508 1505
1462 1461 1467 1475 1485 1484 1470 1462 1454 1450 1449 1451 1456 1461 1466 1472 1477 1481 1484 1488 1491 1495 1499 1503 1506 1509 1511 1513 1515 1517 1517 1519 1519 1521 1521 1521 1521 1521 1520 1520 1518 1517 1515 1513 1511 1509 1507 1504 1501
1463 1464 1465 1464 1463 1472 1472 1460 1441 1444 1447 1449 1452 1456 1462 1468 1473 1478 1482 1486 1490 1494 1497 1501 1504 1507 1509 1512 1513 1514 1516 1517 1518 1519 1519 1519 1519 1519 1518 1518 1516 1514 1512 1510 1507 1505 1502 1499 1496
1454 1454 1458 1467 1465 1461 1464 1459 1441 1445 1449 1451 1452 1455 1460 1466 1472 1476 1481 1485 1489 1493 1496 1500 1502 1505 1508 1510 1511 1512 1514 1515 1516 1518 1518 1518 1517 1517 1516 1515 1513 1511 1509 1506 1503 1500 1497 1493 1490